Photometre #718[NE_1.6] Antikythera_NOA AOT

File : 20200925_718.hum

25/09/2020,05:02:01,TEMP=23.1,BA=5.56,STAT.A=1.0,ExtBa=11.86
25/09/2020,05:05:11,TEMP=23.3,BA=5.56,STAT.A=1.0,ExtBa=11.86
25/09/2020,05:08:54,TEMP=23.4,BA=5.56,STAT.A=1.0,ExtBa=11.86
25/09/2020,05:12:21,TEMP=23.5,BA=5.40,STAT.D=1.0,ExtBa=11.88
25/09/2020,05:14:21,TEMP=23.8,BA=5.40,STAT.A=1.0,ExtBa=11.84
25/09/2020,05:18:21,TEMP=23.7,BA=5.40,STAT.D=1.0,ExtBa=11.90
25/09/2020,05:20:16,TEMP=23.9,BA=5.44,STAT.A=1.0,ExtBa=11.88
25/09/2020,05:24:21,TEMP=23.8,BA=5.44,STAT.D=1.0,ExtBa=11.93
25/09/2020,05:26:16,TEMP=24.1,BA=5.44,STAT.A=1.0,ExtBa=11.92
25/09/2020,05:30:21,TEMP=23.9,BA=5.56,STAT.D=1.0,ExtBa=11.96
25/09/2020,05:33:22,TEMP=24.1,BA=5.56,STAT.B=1.0,ExtBa=11.97
25/09/2020,05:42:57,TEMP=24.3,BA=5.40,STAT.A=1.0,ExtBa=11.86
25/09/2020,05:45:07,TEMP=24.5,BA=5.40,STAT.A=1.0,ExtBa=11.86
25/09/2020,05:47:15,TEMP=24.6,BA=5.40,STAT.A=1.0,ExtBa=11.90
25/09/2020,05:51:21,TEMP=24.5,BA=5.52,STAT.D=1.0,ExtBa=11.96
25/09/2020,05:53:17,TEMP=24.8,BA=5.52,STAT.A=1.0,ExtBa=11.94
25/09/2020,05:57:21,TEMP=24.6,BA=5.52,STAT.D=1.0,ExtBa=12.00
25/09/2020,05:59:17,TEMP=24.9,BA=5.52,STAT.C=1.0,ExtBa=11.99
25/09/2020,06:14:33,TEMP=24.8,BA=5.40,STAT.A=1.0,ExtBa=11.88
25/09/2020,06:16:38,TEMP=25.1,BA=5.40,STAT.A=1.0,ExtBa=11.91
25/09/2020,06:21:22,TEMP=24.9,BA=5.52,STAT.D=1.0,ExtBa=11.99
25/09/2020,06:24:22,TEMP=25.1,BA=5.52,STAT.D=1.0,ExtBa=12.01
25/09/2020,06:26:20,TEMP=25.4,BA=5.52,STAT.A=1.0,ExtBa=12.00
25/09/2020,06:30:22,TEMP=25.2,BA=5.52,STAT.D=1.0,ExtBa=12.04
25/09/2020,06:33:22,TEMP=25.3,BA=5.52,STAT.D=1.0,ExtBa=12.04
25/09/2020,06:36:22,TEMP=25.4,BA=5.52,STAT.D=1.0,ExtBa=12.04
25/09/2020,06:38:23,TEMP=25.6,BA=5.52,STAT.A=1.0,ExtBa=12.03
25/09/2020,06:42:22,TEMP=25.4,BA=5.40,STAT.D=1.0,ExtBa=12.05
25/09/2020,06:45:22,TEMP=25.6,BA=5.40,STAT.D=1.0,ExtBa=12.05
25/09/2020,06:48:22,TEMP=25.7,BA=5.40,STAT.D=1.0,ExtBa=12.05
25/09/2020,06:51:22,TEMP=25.9,BA=5.44,STAT.D=1.0,ExtBa=12.05
25/09/2020,06:54:22,TEMP=25.9,BA=5.44,STAT.D=1.0,ExtBa=12.05
25/09/2020,06:56:19,TEMP=26.2,BA=5.44,STAT.B=1.0,ExtBa=12.04
25/09/2020,07:06:05,TEMP=26.2,BA=5.40,STAT.D=1.0,ExtBa=11.96
25/09/2020,07:09:22,TEMP=26.2,BA=5.40,STAT.D=1.0,ExtBa=12.01
25/09/2020,07:12:22,TEMP=26.3,BA=5.40,STAT.D=1.0,ExtBa=12.03
25/09/2020,07:15:22,TEMP=26.3,BA=5.40,STAT.D=1.0,ExtBa=12.04
25/09/2020,07:18:22,TEMP=26.2,BA=5.40,STAT.D=1.0,ExtBa=12.04
25/09/2020,07:20:19,TEMP=26.5,BA=5.44,STAT.F,ExtBa=12.03
25/09/2020,07:35:20,TEMP=26.3,BA=5.40,STAT.D=1.0,ExtBa=11.94
25/09/2020,07:39:22,TEMP=26.4,BA=5.40,STAT.D=1.0,ExtBa=12.00
25/09/2020,07:42:22,TEMP=26.6,BA=5.40,STAT.D=1.0,ExtBa=12.02
25/09/2020,07:45:22,TEMP=26.7,BA=5.40,STAT.D=1.0,ExtBa=12.02
25/09/2020,07:48:22,TEMP=26.8,BA=5.40,STAT.D=1.0,ExtBa=12.03
25/09/2020,07:50:17,TEMP=27.1,BA=5.44,STAT.D=1.0,ExtBa=12.01
25/09/2020,07:54:22,TEMP=26.9,BA=5.44,STAT.D=1.5,ExtBa=12.03
25/09/2020,07:57:22,TEMP=27.0,BA=5.44,STAT.D=1.0,ExtBa=12.03
25/09/2020,08:00:22,TEMP=27.1,BA=5.48,STAT.D=1.5,ExtBa=12.03
25/09/2020,08:03:22,TEMP=27.2,BA=5.48,STAT.D=1.5,ExtBa=12.03
25/09/2020,08:05:18,TEMP=27.5,BA=5.48,STAT.D=1.0,ExtBa=12.01
25/09/2020,08:09:23,TEMP=27.3,BA=5.48,STAT.D=1.5,ExtBa=12.03
25/09/2020,08:12:22,TEMP=27.4,BA=5.40,STAT.D=1.5,ExtBa=12.02
25/09/2020,08:15:23,TEMP=27.4,BA=5.40,STAT.D=1.5,ExtBa=12.02
25/09/2020,08:18:23,TEMP=27.4,BA=5.40,STAT.D=1.5,ExtBa=12.02
25/09/2020,08:20:20,TEMP=27.7,BA=5.44,STAT.F,ExtBa=12.00
25/09/2020,08:35:17,TEMP=27.3,BA=5.36,STAT.D=1.5,ExtBa=11.91
25/09/2020,08:39:23,TEMP=27.4,BA=5.36,STAT.D=1.5,ExtBa=11.95
25/09/2020,08:42:23,TEMP=27.6,BA=5.40,STAT.D=1.5,ExtBa=11.96
25/09/2020,08:45:23,TEMP=27.6,BA=5.40,STAT.D=1.5,ExtBa=11.97
25/09/2020,08:48:23,TEMP=27.5,BA=5.40,STAT.D=1.5,ExtBa=11.97
25/09/2020,08:50:20,TEMP=27.7,BA=5.40,STAT.D=1.5,ExtBa=11.96
25/09/2020,08:54:23,TEMP=27.3,BA=5.40,STAT.D=1.5,ExtBa=11.98
25/09/2020,08:57:23,TEMP=27.3,BA=5.40,STAT.D=1.5,ExtBa=11.97
25/09/2020,09:00:23,TEMP=27.4,BA=5.48,STAT.D=1.5,ExtBa=11.97
25/09/2020,09:03:23,TEMP=27.3,BA=5.48,STAT.D=1.5,ExtBa=11.97
25/09/2020,09:05:19,TEMP=27.5,BA=5.48,STAT.D=1.0,ExtBa=11.96
25/09/2020,09:09:23,TEMP=27.3,BA=5.48,STAT.D=1.5,ExtBa=11.98
25/09/2020,09:12:23,TEMP=27.4,BA=5.40,STAT.D=1.5,ExtBa=11.97
25/09/2020,09:15:23,TEMP=27.5,BA=5.40,STAT.D=1.5,ExtBa=11.97
25/09/2020,09:18:23,TEMP=27.6,BA=5.40,STAT.D=1.5,ExtBa=11.97
25/09/2020,09:20:19,TEMP=27.8,BA=5.40,STAT.F,ExtBa=11.95
25/09/2020,09:27:23,TEMP=27.9,BA=5.40,STAT.D=1.5,ExtBa=11.89
25/09/2020,09:30:23,TEMP=28.1,BA=5.44,STAT.D=1.5,ExtBa=11.90
25/09/2020,09:33:23,TEMP=28.3,BA=5.44,STAT.D=1.5,ExtBa=11.91
25/09/2020,09:35:17,TEMP=28.6,BA=5.44,STAT.D=1.5,ExtBa=11.90
25/09/2020,09:39:23,TEMP=28.4,BA=5.44,STAT.D=1.5,ExtBa=11.92
25/09/2020,09:42:23,TEMP=28.4,BA=5.40,STAT.D=1.5,ExtBa=11.91
25/09/2020,09:45:23,TEMP=28.4,BA=5.40,STAT.D=1.5,ExtBa=11.91
25/09/2020,09:48:23,TEMP=28.2,BA=5.40,STAT.D=1.5,ExtBa=11.90
25/09/2020,09:50:24,TEMP=28.4,BA=5.36,STAT.D=1.5,ExtBa=11.88
25/09/2020,09:54:23,TEMP=28.1,BA=5.36,STAT.D=1.5,ExtBa=11.90
25/09/2020,09:57:23,TEMP=28.2,BA=5.36,STAT.D=1.5,ExtBa=11.89
25/09/2020,10:00:23,TEMP=28.2,BA=5.44,STAT.D=1.5,ExtBa=11.89
25/09/2020,10:03:23,TEMP=28.2,BA=5.44,STAT.D=1.5,ExtBa=11.89
25/09/2020,10:05:17,TEMP=28.5,BA=5.44,STAT.D=1.5,ExtBa=11.87
25/09/2020,10:09:23,TEMP=28.0,BA=5.44,STAT.D=1.5,ExtBa=11.88
25/09/2020,10:12:23,TEMP=27.9,BA=5.36,STAT.D=1.5,ExtBa=11.87
25/09/2020,10:15:23,TEMP=28.0,BA=5.36,STAT.D=1.5,ExtBa=11.86
25/09/2020,10:18:23,TEMP=27.8,BA=5.36,STAT.D=1.5,ExtBa=11.85
25/09/2020,10:20:24,TEMP=28.0,BA=5.40,STAT.F,ExtBa=11.83
25/09/2020,10:27:23,TEMP=27.5,BA=5.40,STAT.D=1.5,ExtBa=11.79
25/09/2020,10:30:23,TEMP=27.6,BA=5.44,STAT.D=1.5,ExtBa=11.79
25/09/2020,10:33:23,TEMP=27.8,BA=5.44,STAT.D=1.5,ExtBa=11.79
25/09/2020,10:35:17,TEMP=28.1,BA=5.44,STAT.D=1.5,ExtBa=11.78
25/09/2020,10:39:23,TEMP=27.9,BA=5.44,STAT.D=1.5,ExtBa=11.79
25/09/2020,10:42:23,TEMP=27.9,BA=5.36,STAT.D=1.5,ExtBa=11.78
25/09/2020,10:45:23,TEMP=28.0,BA=5.36,STAT.D=1.5,ExtBa=11.77
25/09/2020,10:48:23,TEMP=28.1,BA=5.36,STAT.D=1.5,ExtBa=11.77
25/09/2020,10:50:17,TEMP=28.4,BA=5.40,STAT.D=1.5,ExtBa=11.76
25/09/2020,10:54:23,TEMP=27.9,BA=5.40,STAT.D=1.5,ExtBa=11.76
25/09/2020,10:57:23,TEMP=27.9,BA=5.40,STAT.D=1.5,ExtBa=11.76
25/09/2020,11:00:23,TEMP=28.0,BA=5.44,STAT.D=1.5,ExtBa=11.75
25/09/2020,11:03:23,TEMP=28.0,BA=5.44,STAT.D=1.5,ExtBa=11.75
25/09/2020,11:05:18,TEMP=28.2,BA=5.44,STAT.D=1.5,ExtBa=11.73
25/09/2020,11:09:23,TEMP=28.0,BA=5.44,STAT.D=1.5,ExtBa=11.74
25/09/2020,11:12:23,TEMP=28.2,BA=5.36,STAT.D=1.5,ExtBa=11.73
25/09/2020,11:15:23,TEMP=28.1,BA=5.36,STAT.D=1.5,ExtBa=11.73
25/09/2020,11:18:23,TEMP=28.0,BA=5.36,STAT.D=1.5,ExtBa=11.72
25/09/2020,11:20:20,TEMP=28.2,BA=5.40,STAT.F,ExtBa=11.71
25/09/2020,11:35:38,TEMP=28.2,BA=5.36,STAT.D=1.5,ExtBa=11.67
25/09/2020,11:39:23,TEMP=28.3,BA=5.36,STAT.D=1.5,ExtBa=11.67
25/09/2020,11:42:23,TEMP=28.4,BA=5.36,STAT.D=1.5,ExtBa=11.67
25/09/2020,11:45:23,TEMP=28.5,BA=5.36,STAT.D=1.5,ExtBa=11.67
25/09/2020,11:48:23,TEMP=28.5,BA=5.36,STAT.D=1.5,ExtBa=11.67
25/09/2020,11:50:20,TEMP=28.7,BA=5.40,STAT.D=1.5,ExtBa=11.66
25/09/2020,11:54:23,TEMP=28.3,BA=5.40,STAT.D=1.5,ExtBa=11.67
25/09/2020,11:57:23,TEMP=28.3,BA=5.40,STAT.D=1.5,ExtBa=11.66
25/09/2020,12:00:23,TEMP=28.3,BA=5.44,STAT.D=1.5,ExtBa=11.66
25/09/2020,12:03:23,TEMP=28.3,BA=5.44,STAT.D=1.5,ExtBa=11.66
25/09/2020,12:05:19,TEMP=28.5,BA=5.44,STAT.D=1.5,ExtBa=11.65
25/09/2020,12:09:23,TEMP=28.3,BA=5.44,STAT.D=1.5,ExtBa=11.66
25/09/2020,12:12:23,TEMP=28.3,BA=5.36,STAT.D=1.5,ExtBa=11.65
25/09/2020,12:15:22,TEMP=28.2,BA=5.36,STAT.D=1.5,ExtBa=11.65
25/09/2020,12:18:23,TEMP=28.2,BA=5.36,STAT.D=1.5,ExtBa=11.65
25/09/2020,12:20:18,TEMP=28.4,BA=5.36,STAT.F,ExtBa=11.64
25/09/2020,12:35:24,TEMP=28.0,BA=5.36,STAT.D=1.5,ExtBa=11.60
25/09/2020,12:39:22,TEMP=27.9,BA=5.36,STAT.D=1.5,ExtBa=11.62
25/09/2020,12:42:22,TEMP=28.0,BA=5.36,STAT.D=1.5,ExtBa=11.61
25/09/2020,12:45:22,TEMP=28.1,BA=5.36,STAT.D=1.5,ExtBa=11.61
25/09/2020,12:48:22,TEMP=28.1,BA=5.36,STAT.D=1.5,ExtBa=11.61
25/09/2020,12:50:19,TEMP=28.3,BA=5.40,STAT.D=1.5,ExtBa=11.59
25/09/2020,12:54:22,TEMP=28.0,BA=5.40,STAT.D=1.5,ExtBa=11.60
25/09/2020,12:57:22,TEMP=28.0,BA=5.40,STAT.D=1.5,ExtBa=11.60
25/09/2020,13:00:22,TEMP=28.0,BA=5.44,STAT.D=1.5,ExtBa=11.59
25/09/2020,13:03:22,TEMP=27.9,BA=5.44,STAT.D=1.5,ExtBa=11.59
25/09/2020,13:05:20,TEMP=28.0,BA=5.44,STAT.D=1.5,ExtBa=11.58
25/09/2020,13:09:22,TEMP=27.7,BA=5.44,STAT.D=1.5,ExtBa=11.59
25/09/2020,13:12:22,TEMP=27.7,BA=5.36,STAT.D=1.5,ExtBa=11.58
25/09/2020,13:15:22,TEMP=27.7,BA=5.36,STAT.D=1.5,ExtBa=11.58
25/09/2020,13:18:22,TEMP=27.6,BA=5.36,STAT.D=1.5,ExtBa=11.58
25/09/2020,13:20:20,TEMP=27.8,BA=5.40,STAT.F,ExtBa=11.56
25/09/2020,13:35:42,TEMP=27.5,BA=5.36,STAT.D=1.5,ExtBa=11.54
25/09/2020,13:39:22,TEMP=27.4,BA=5.36,STAT.D=1.5,ExtBa=11.55
25/09/2020,13:42:22,TEMP=27.5,BA=5.36,STAT.D=1.5,ExtBa=11.55
25/09/2020,13:44:22,TEMP=27.7,BA=5.36,STAT.B=1.0,ExtBa=11.54
25/09/2020,13:54:22,TEMP=27.2,BA=5.36,STAT.D=1.5,ExtBa=11.52
25/09/2020,13:57:22,TEMP=27.1,BA=5.36,STAT.D=1.5,ExtBa=11.52
25/09/2020,13:59:17,TEMP=27.2,BA=5.36,STAT.A=1.0,ExtBa=11.52
25/09/2020,14:03:22,TEMP=26.9,BA=5.32,STAT.D=1.5,ExtBa=11.53
25/09/2020,14:06:22,TEMP=27.0,BA=5.32,STAT.D=1.5,ExtBa=11.52
25/09/2020,14:09:22,TEMP=26.9,BA=5.32,STAT.D=1.5,ExtBa=11.52
25/09/2020,14:12:03,TEMP=26.9,BA=5.36,STAT.A=1.0,ExtBa=11.52
25/09/2020,14:15:22,TEMP=26.8,BA=5.36,STAT.D=1.5,ExtBa=11.52
25/09/2020,14:18:22,TEMP=26.8,BA=5.36,STAT.D=1.0,ExtBa=11.51
25/09/2020,14:21:22,TEMP=26.8,BA=5.40,STAT.D=1.0,ExtBa=11.51
25/09/2020,14:23:17,TEMP=26.9,BA=5.40,STAT.A=1.0,ExtBa=11.50
25/09/2020,14:27:22,TEMP=26.5,BA=5.40,STAT.D=1.5,ExtBa=11.51
25/09/2020,14:30:21,TEMP=26.5,BA=5.44,STAT.D=1.0,ExtBa=11.51
25/09/2020,14:32:18,TEMP=26.6,BA=5.44,STAT.A=1.0,ExtBa=11.50
25/09/2020,14:36:20,TEMP=26.2,BA=5.44,STAT.D=1.0,ExtBa=11.51
25/09/2020,14:38:50,TEMP=26.4,BA=5.44,STAT.C=1.0,ExtBa=11.50
25/09/2020,14:54:52,TEMP=26.0,BA=5.32,STAT.A=1.0,ExtBa=11.48
25/09/2020,14:56:54,TEMP=26.2,BA=5.32,STAT.A=1.0,ExtBa=11.48
25/09/2020,14:59:01,TEMP=26.2,BA=5.32,STAT.A=1.0,ExtBa=11.48
25/09/2020,15:01:13,TEMP=26.2,BA=5.32,STAT.A=1.0,ExtBa=11.47
25/09/2020,15:04:14,TEMP=26.0,BA=5.32,STAT.B=1.0,ExtBa=11.48
25/09/2020,15:14:11,TEMP=25.4,BA=5.32,STAT.A=1.0,ExtBa=11.46
25/09/2020,15:18:21,TEMP=25.3,BA=5.32,STAT.D=1.0,ExtBa=11.48
25/09/2020,15:20:16,TEMP=25.6,BA=5.32,STAT.A=1.0,ExtBa=11.46
25/09/2020,15:24:18,TEMP=25.2,BA=5.32,STAT.A=1.0,ExtBa=11.47
25/09/2020,15:27:21,TEMP=25.2,BA=5.32,STAT.D=1.0,ExtBa=11.47
25/09/2020,15:29:24,TEMP=25.4,BA=5.32,STAT.A=1.0,ExtBa=11.45
25/09/2020,15:32:25,TEMP=25.1,BA=5.28,STAT.A=1.0,ExtBa=11.46
25/09/2020,15:35:35,TEMP=25.0,BA=5.28,STAT.A=1.0,ExtBa=11.47